TimeCST,TemperatureF,Dew PointF,Humidity,Sea Level PressureIn,VisibilityMPH,Wind Direction,Wind SpeedMPH,Gust SpeedMPH,PrecipitationIn,Events,Conditions,WindDirDegrees,DateUTC
12:23 AM,21.2,17.6,86,29.75,10.0,WNW,3.5,-,N/A,,Overcast,300,2012-12-11 06:23:00
12:52 AM,23.0,19.0,85,29.83,10.0,WNW,6.9,-,N/A,,Overcast,290,2012-12-11 06:52:00
1:52 AM,26.1,21.0,81,29.81,10.0,WNW,11.5,-,N/A,,Overcast,290,2012-12-11 07:52:00
2:52 AM,27.0,21.0,78,29.81,10.0,WNW,13.8,-,N/A,,Overcast,300,2012-12-11 08:52:00
3:52 AM,28.0,21.9,78,29.81,10.0,WNW,11.5,-,N/A,,Overcast,290,2012-12-11 09:52:00
4:52 AM,28.9,21.0,72,29.81,10.0,NW,15.0,-,N/A,,Overcast,310,2012-12-11 10:52:00
5:52 AM,28.0,21.0,75,29.83,10.0,WNW,10.4,-,N/A,,Overcast,300,2012-12-11 11:52:00
6:52 AM,27.0,19.9,75,29.83,10.0,WNW,8.1,-,N/A,,Overcast,300,2012-12-11 12:52:00
7:52 AM,26.1,21.0,81,29.84,10.0,West,3.5,-,N/A,,Overcast,280,2012-12-11 13:52:00
8:52 AM,26.1,21.0,81,29.85,10.0,WNW,4.6,-,N/A,,Overcast,300,2012-12-11 14:52:00
9:52 AM,27.0,21.9,81,29.85,10.0,West,6.9,-,N/A,,Overcast,280,2012-12-11 15:52:00
10:52 AM,28.0,21.9,78,29.86,10.0,NW,6.9,-,N/A,,Overcast,310,2012-12-11 16:52:00
11:52 AM,28.9,21.9,75,29.84,10.0,Calm,Calm,-,N/A,,Overcast,0,2012-12-11 17:52:00
12:52 PM,28.0,23.0,81,29.83,10.0,SW,8.1,-,N/A,,Mostly Cloudy,220,2012-12-11 18:52:00
1:52 PM,28.0,21.0,75,29.81,10.0,SSW,3.5,-,N/A,,Clear,210,2012-12-11 19:52:00
2:52 PM,27.0,21.0,78,29.80,10.0,South,5.8,-,N/A,,Clear,190,2012-12-11 20:52:00
3:52 PM,27.0,21.0,78,29.79,10.0,South,9.2,-,N/A,,Clear,170,2012-12-11 21:52:00
4:52 PM,24.1,19.0,81,29.78,10.0,SSE,9.2,-,N/A,,Clear,160,2012-12-11 22:52:00
5:52 PM,23.0,18.0,81,29.78,10.0,SSE,8.1,-,N/A,,Clear,160,2012-12-11 23:52:00
6:52 PM,24.1,21.0,88,29.76,10.0,SSE,12.7,-,N/A,,Clear,150,2012-12-12 00:52:00
7:52 PM,24.1,19.0,81,29.74,10.0,SSE,12.7,-,N/A,,Partly Cloudy,150,2012-12-12 01:52:00
8:52 PM,24.1,19.9,84,29.73,10.0,SSE,13.8,-,N/A,,Scattered Clouds,160,2012-12-12 02:52:00
9:52 PM,24.1,19.9,84,29.70,10.0,SSE,13.8,-,N/A,,Clear,150,2012-12-12 03:52:00
10:52 PM,25.0,19.9,81,29.68,10.0,SSE,13.8,-,N/A,,Scattered Clouds,150,2012-12-12 04:52:00
11:52 PM,26.1,21.9,84,29.67,10.0,SSE,10.4,-,N/A,,Overcast,150,2012-12-12 05:52:00